ARIANE 5 R/B, 37811

Orbit data source: Space-Track

ARIANE 5 R/B, 37811 is space debris in HEO originally from a launch on Wed, 21 Sep 2011 UTC launched from the French Guiana (FRGUI). Debris objects in space refer to the collection of defunct objects orbiting the Earth. Examples of debris include non-operational satellites, rocket bodies, and fragments generated from explosions, collisions, or faulty payload assembly.

Loading next visibility...
Identifier
37811, 2011-049C
Orbit
HEO
Country
Flag of FRFR
Related business
Manufacturer
EADS/LV
Mission
Spacecraft
Bus & Motor
ESC-A, Unknown motor
Mass
~5,000 kg wet, ~5,000 kg dry
Launch date (UTC)
2011-09-21 (14 years ago)
Launch vehicle
Unknown
Launch site
French Guiana (FRGUI)
Object type
Payload
Rocket body
Debris
Shape & HBR
Cyl + 1 Nozzle, 3.5 m
Radar Cross Section
41.627 m², Large (>1 m²)

Expand to show TLE details & history
Last TLE update: 15 hours ago

TLE from 15 hours ago
0 ARIANE 5 R/B
1 37811U 11049C   25306.30186279  .00005622  00000-0  10383-2 0  9999
2 37811   2.6137 279.1792 6900088 256.7728  23.6214  2.78060891128028
Epoch: 2025-11-02T07:14Z
TLE epoch observation values (Epoch: 2025-11-02T07:14:40.945Z)
Latitude
-0.00002°
Longitude
128.30909°
Altitude
6,819.441 km
Speed
6.461 km/s
True Right ascension
18h 35m 11s
True Declination
0° 00' 00"
Sunlit
Object was in daylight at epoch
Visualization orbit readout
Latitude
Unknown
Longitude
Unknown
Altitude
Unknown
Speed
Unknown
Apparent Right ascension
Unknown
Apparent Declination
Unknown
Sunlit
N/A
Visualization observer readout
Local Sidereal Time
18:19:16
Azimuth
Unknown
Elevation
Unknown
Doppler factor
Unknown
Orbital elements
Apogee altitude
29,733.014 km
Perigee altitude
245.579 km
Semi-major axis
21,367.434 km
Eccentricity
0.69001
Inclination
2.6137°
RAAN
279.1792°
Arg. of periapsis
256.7728°
True anomaly
103.0524°
Mean anomaly
23.6214°
Eccentric anomaly
56.64315°
Mean motion
0.69489 °/min
Orbital period
518.07 mins
BSTAR
0.0010383
Loading maneuver chart data...
Computing Atmospheric mass density...
Loading historical data...
Loading historical data...
Loading historical data...
Loading historical data...
Loading historical data...
Loading historical data...
Loading historical data...
Other satellites on launch #49 in the year 2011 (2011-09-21 UTC)

Documentation

Showing up to 5 results
|